"Pseudo-MPEC" for P125u5m

Created 2025 Jan 21 2:31:19 UT using Find_Orb

Click here for an explanation of pseudo-MPECs

 
 Astrometry: 
     P125u5m* C2025 01 07.36664706 06 01.157-20 37 31.99   ~192l 21.75wXNEOCPF51
     P125u5m  C2025 01 07.37704406 06 00.179-20 37 22.00   ~192l 22.10wXNEOCPF51
     P125u5m  C2025 01 07.38811306 05 59.164-20 37 11.75   ~192l 22.06wXNEOCPF51
     P125u5m  C2025 01 07.39852006 05 58.186-20 37 01.50   ~192l 21.96wXNEOCPF51

Station data:
(F51) Pan-STARRS 1, Haleakala  (N20.707234 W156.255910)  US/Hawaii.
   Observers J. Bulger, T. Lowe, A. Schultz, M. Willman. Measurers K.
   Chambers, S. Chastel, T. de Boer, L. Denneau, J. Fairlamb, H. Flewelling,
   M. Huber, C.-C. Lin, E. Magnier, Y. Ramanjooloo, R. Wainscoat, R. Weryk.
   1.8-m Ritchey-Chrétien + CCD.

Orbital elements:  P125u5m
   Perihelion 2025 Sep 29.38160 +/- 222 TT =  9:09:30 (JD 2460947.88160)
Epoch 2025 Jan  7.0 TT = JDT 2460682.5   Earth MOID: 0.3855   Ma: 0.0897
M 239.39362135 +/- 110              (J2000 ecliptic)             AutoNEOCP
n   0.45446398 +/- 0.29             Peri.   97.19259 +/- 60
a   1.67546901 +/- 0.712            Node   142.28165 +/- 56
e   0.3064760 +/- 0.255             Incl.   34.27552 +/- 29
P   2.169/792.127d         H 18.86  G  0.15   U 11.9  SR
q 1.16197793 +/- 0.782    Q 2.18896009 +/- 24.6
From 4 observations 2025 Jan. 7 (45.9 min); mean residual 0".11
Residuals in arcseconds: 
250107 F51  .04+  .00     250107 F51  .10+  .21-    
250107 F51  .11-  .10+    250107 F51  .03-  .11+    

Ephemerides (geocentric):
Date (UTC) HH   RA             Dec           delta  r     elong  mag " sig PA
---- --------  ------------   ------------  ------ ------ -----  --- --------
2025 01 21 03  05 47 38.806   -16 08 28.47  1.2173 1.9918 129.3 21.9  29d  71
2025 01 21 04  05 47 35.994   -16 07 31.70  1.2173 1.9917 129.3 21.9  29d  71
2025 01 21 05  05 47 33.186   -16 06 34.89  1.2174 1.9915 129.2 21.9  29d  71
2025 01 21 06  05 47 30.382   -16 05 38.04  1.2175 1.9914 129.2 21.9  29d  71
2025 01 21 07  05 47 27.581   -16 04 41.15  1.2175 1.9913 129.2 21.9  29d  71
2025 01 21 08  05 47 24.785   -16 03 44.23  1.2176 1.9912 129.2 21.9  29d  71
2025 01 21 09  05 47 21.992   -16 02 47.26  1.2176 1.9911 129.2 21.9  29d  71
2025 01 21 10  05 47 19.203   -16 01 50.26  1.2177 1.9910 129.1 21.9  29d  71
2025 01 21 11  05 47 16.417   -16 00 53.22  1.2178 1.9909 129.1 21.9  29d  72
2025 01 21 12  05 47 13.636   -15 59 56.13  1.2178 1.9908 129.1 21.9  29d  72
2025 01 21 13  05 47 10.858   -15 58 59.02  1.2179 1.9906 129.1 21.9  29d  72
2025 01 21 14  05 47 08.084   -15 58 01.86  1.2180 1.9905 129.0 21.9  29d  72
2025 01 21 15  05 47 05.314   -15 57 04.66  1.2180 1.9904 129.0 21.9  29d  72
2025 01 21 16  05 47 02.547   -15 56 07.43  1.2181 1.9903 129.0 21.9  29d  72
2025 01 21 17  05 46 59.785   -15 55 10.15  1.2182 1.9902 129.0 21.9  29d  72
2025 01 21 18  05 46 57.026   -15 54 12.84  1.2182 1.9901 129.0 21.9  29d  72
2025 01 21 19  05 46 54.271   -15 53 15.50  1.2183 1.9900 128.9 21.9  29d  72
2025 01 21 20  05 46 51.520   -15 52 18.11  1.2184 1.9899 128.9 21.9  29d  72
2025 01 21 21  05 46 48.773   -15 51 20.68  1.2184 1.9897 128.9 21.9  29d  72
2025 01 21 22  05 46 46.029   -15 50 23.22  1.2185 1.9896 128.9 21.9  29d  72
2025 01 21 23  05 46 43.290   -15 49 25.72  1.2186 1.9895 128.9 21.9  29d  72
2025 01 22 00  05 46 40.554   -15 48 28.18  1.2186 1.9894 128.8 21.9  29d  73
2025 01 22 01  05 46 37.822   -15 47 30.61  1.2187 1.9893 128.8 21.9  29d  73
2025 01 22 02  05 46 35.094   -15 46 33.00  1.2188 1.9892 128.8 21.9  29d  73
2025 01 22 03  05 46 32.370   -15 45 35.35  1.2188 1.9891 128.8 21.9  29d  73
2025 01 22 04  05 46 29.649   -15 44 37.66  1.2189 1.9889 128.7 21.9  29d  73
2025 01 22 05  05 46 26.933   -15 43 39.94  1.2190 1.9888 128.7 21.9  29d  73
2025 01 22 06  05 46 24.220   -15 42 42.18  1.2191 1.9887 128.7 21.9  29d  73
2025 01 22 07  05 46 21.511   -15 41 44.38  1.2191 1.9886 128.7 21.9  29d  73
2025 01 22 08  05 46 18.806   -15 40 46.54  1.2192 1.9885 128.7 21.9  29d  73
2025 01 22 09  05 46 16.105   -15 39 48.67  1.2193 1.9884 128.6 21.9  29d  73
2025 01 22 10  05 46 13.408   -15 38 50.76  1.2193 1.9883 128.6 21.9  29d  73
2025 01 22 11  05 46 10.715   -15 37 52.81  1.2194 1.9882 128.6 21.9  29d  73
2025 01 22 12  05 46 08.026   -15 36 54.83  1.2195 1.9880 128.6 21.9  29d  73
2025 01 22 13  05 46 05.340   -15 35 56.81  1.2196 1.9879 128.5 21.9  29d  73
2025 01 22 14  05 46 02.659   -15 34 58.76  1.2196 1.9878 128.5 21.9  29d  73
2025 01 22 15  05 45 59.981   -15 34 00.67  1.2197 1.9877 128.5 21.9  29d  73
2025 01 22 16  05 45 57.307   -15 33 02.54  1.2198 1.9876 128.5 21.9  29d  73
2025 01 22 17  05 45 54.637   -15 32 04.38  1.2199 1.9875 128.5 21.9  29d  73
2025 01 22 18  05 45 51.971   -15 31 06.18  1.2199 1.9874 128.4 21.9  29d  73
2025 01 22 19  05 45 49.309   -15 30 07.94  1.2200 1.9872 128.4 21.9  29d  74
2025 01 22 20  05 45 46.651   -15 29 09.67  1.2201 1.9871 128.4 21.9  29d  74
2025 01 22 21  05 45 43.997   -15 28 11.36  1.2202 1.9870 128.4 21.9  29d  74
2025 01 22 22  05 45 41.347   -15 27 13.02  1.2202 1.9869 128.3 21.9  29d  74
2025 01 22 23  05 45 38.700   -15 26 14.64  1.2203 1.9868 128.3 21.9  29d  74
2025 01 23 00  05 45 36.058   -15 25 16.22  1.2204 1.9867 128.3 21.9  29d  74
2025 01 23 01  05 45 33.420   -15 24 17.77  1.2205 1.9866 128.3 21.9  29d  74
2025 01 23 02  05 45 30.785   -15 23 19.29  1.2205 1.9864 128.2 21.9  29d  74